RH
63 67 76 93 91 92 94 94 94 94 93 92 91 90 87 81 75 71 70 71 71 71 71 74 72 72 72 75 68 70 30 35
64 63 61 68 76 94 94 95 95 94 93 92 89 84 81 78 78 74 72 71 72 70 73 74 72 71 73 73 68 67 32 36
70 61 58 67 71 85 95 95 94 92 89 88 82 69 66 66 71 76 72 72 70 71 72 73 74 71 66 70 72 32 37 37
67 68 58 65 70 87 86 85 80 84 82 80 77 68 61 57 68 75 74 71 69 71 72 72 60 33 38 66 35 54 59 66
58 69 73 74 83 84 87 87 84 81 77 74 70 60 64 55 60 56 59 64 47 50 50 34 35 36 36 39 43 54 64 69
61 64 71 82 84 85 86 81 89 91 76 75 72 60 63 59 50 45 49 44 52 45 35 47 49 48 47 44 40 48 61 65
69 75 71 82 85 86 82 81 84 87 76 68 60 64 69 61 55 55 57 49 52 51 55 54 53 49 46 46 42 52 58 63
81 79 83 81 78 82 81 83 84 83 80 67 74 64 61 64 73 73 74 63 57 54 55 52 46 49 49 48 47 46 49 58
85 88 85 84 80 78 75 74 69 73 74 66 74 70 70 69 64 63 58 61 66 53 54 48 50 50 56 52 48 49 47 48
81 83 87 89 80 78 74 72 68 70 60 66 79 67 77 80 82 71 58 47 41 47 51 49 49 49 56 45 46 47 48 45
78 84 88 89 88 78 76 78 77 74 74 71 75 76 69 68 54 53 61 50 42 46 50 58 53 50 49 48 46 45 44 40
74 82 84 89 88 83 77 84 74 70 72 67 75 63 70 69 46 51 59 51 44 47 54 50 49 54 44 47 47 46 45 46
73 84 84 86 91 91 84 76 72 64 59 64 73 66 65 58 46 53 52 42 49 56 53 57 60 54 53 55 54 53 50 46
65 75 78 79 77 88 83 70 60 61 55 59 60 61 66 59 52 54 51 44 55 60 62 56 54 56 56 53 62 57 51 44
59 66 74 74 73 84 85 80 67 60 54 54 56 57 61 61 55 53 54 50 57 63 63 61 63 57 56 44 53 51 56 50
49 59 70 74 71 80 83 76 70 61 56 50 50 56 56 54 59 54 57 51 59 65 59 58 58 60 54 44 52 50 51 61
41 53 67 74 75 78 76 75 67 58 52 55 56 57 57 51 58 56 59 53 64 64 65 61 52 52 52 52 55 46 45 47
33 46 62 75 80 81 79 79 74 70 62 55 55 57 56 56 53 57 60 55 60 62 64 61 56 52 47 49 48 45 43 40
44 44 60 82 85 83 81 82 79 75 75 67 62 60 58 61 59 59 56 55 57 59 63 63 59 54 58 48 42 39 34 33
47 51 62 79 87 85 82 82 86 85 79 79 74 70 62 63 59 58 57 54 60 62 62 59 61 60 60 56 43 40 36 34
Wind_Speed
14 16 16 12 12 12 14 14 13 12 11 13 13 13 19 15 11 10 11 12 13 13 12 13 11 8 5 2 6 9 11 9
14 15 16 17 14 14 18 17 16 15 15 15 14 14 16 15 15 11 11 11 14 14 13 13 11 8 1 1 4 9 11 13
13 16 17 15 17 15 16 19 20 19 16 15 12 8 10 12 10 12 9 9 11 13 14 14 11 6 1 9 8 6 12 10
15 14 16 17 11 15 14 15 12 10 11 10 6 9 8 8 14 10 12 9 10 12 13 12 9 7 4 9 3 14 11 12
17 15 14 14 12 9 6 6 7 8 13 10 8 9 8 8 8 8 8 10 7 7 9 6 6 6 3 4 10 14 8 8
17 15 12 12 10 7 9 8 6 6 9 12 8 7 9 9 8 10 8 6 7 7 4 5 4 3 5 9 6 12 8 6
17 14 16 10 12 8 8 9 7 8 8 9 10 8 8 9 8 7 6 7 5 6 6 6 7 4 7 6 7 15 13 8
15 11 13 13 11 13 10 8 9 8 7 8 8 7 10 10 9 8 6 7 6 8 9 10 9 7 8 8 9 9 11 12
17 14 11 14 14 12 11 11 11 9 9 14 8 6 11 10 10 9 9 8 7 7 9 9 10 9 8 7 9 8 10 10
17 13 14 11 13 12 9 10 11 8 11 11 8 11 9 7 6 6 9 10 10 10 10 11 11 10 8 8 8 8 10 8
18 17 16 14 8 9 9 13 9 9 8 9 13 11 12 9 9 9 7 6 9 9 9 7 9 10 10 8 8 6 8 7
17 15 16 14 10 8 6 6 7 7 7 9 13 11 11 9 10 11 9 8 10 10 11 11 10 8 10 8 7 7 7 7
14 15 16 11 10 10 9 11 10 10 11 13 14 12 13 13 10 12 12 12 12 12 12 12 9 11 11 8 7 6 6 7
17 16 16 15 11 10 7 12 13 12 12 13 14 15 14 12 12 13 13 11 13 14 13 11 11 11 9 9 7 6 6 5
16 18 16 18 17 10 7 7 8 11 13 13 14 17 15 13 13 13 12 11 11 13 13 14 10 13 13 4 6 5 9 6
17 17 17 16 19 14 18 13 14 11 12 13 15 18 17 16 13 13 13 10 14 12 12 12 12 11 10 5 2 10 7 7
13 17 16 15 16 16 15 16 12 12 12 17 16 16 17 17 13 13 12 10 11 15 15 13 10 11 10 8 7 6 8 7
10 12 16 14 15 17 18 19 15 12 15 15 14 13 13 17 17 14 13 11 13 12 13 15 11 11 10 9 8 8 8 9
8 12 11 13 14 16 15 16 15 17 17 15 16 14 14 16 17 15 12 12 12 12 13 13 12 11 11 9 8 7 6 6
9 10 9 10 12 15 14 14 10 9 13 12 12 12 13 16 15 14 14 14 11 11 10 10 11 9 11 7 7 6 5 7
Wind_Direction
165 174 175 175 169 148 132 129 122 123 126 129 126 122 112 112 121 148 149 141 136 129 122 116 110 103 106 55 343 334 93 85
183 180 181 177 172 145 141 134 132 129 119 113 114 112 112 133 141 155 147 139 134 128 120 112 103 94 78 255 237 261 98 91
192 181 185 180 174 152 138 137 130 122 118 121 134 126 138 153 125 134 129 131 128 123 120 113 106 101 288 285 302 76 61 82
181 188 191 184 163 163 155 151 149 137 140 156 157 140 139 145 106 118 124 125 112 118 119 132 169 139 158 246 139 77 58 54
200 193 180 174 152 152 139 138 143 150 148 152 151 162 146 140 134 149 137 156 142 144 140 181 144 173 182 85 101 98 80 67
198 191 185 164 157 154 151 148 146 148 160 159 159 166 161 149 171 158 159 173 151 160 148 86 79 83 109 130 124 118 102 79
211 181 181 172 150 144 158 154 155 153 168 167 170 166 159 163 167 164 166 147 161 125 133 129 120 119 117 119 96 95 108 90
195 198 176 169 170 163 164 163 154 155 170 171 182 195 164 171 170 173 169 168 161 161 165 150 139 133 116 114 106 105 105 118
186 184 189 175 176 173 170 172 169 175 171 184 167 169 168 170 169 176 176 181 176 173 146 130 136 114 104 96 98 101 105 121
177 178 182 184 180 166 176 175 180 174 176 176 158 168 150 140 146 172 180 179 177 162 158 148 140 135 125 118 116 113 110 118
189 177 178 175 174 177 172 169 176 168 167 171 172 166 167 166 174 173 175 172 168 164 155 149 139 138 133 110 115 119 107 101
182 178 178 174 161 164 152 149 175 161 167 172 165 176 175 191 174 169 171 176 166 167 164 150 143 138 116 128 122 118 122 112
190 173 175 171 170 167 169 172 175 181 182 179 176 173 177 185 177 168 190 178 170 166 161 160 144 132 124 125 98 107 136 119
185 186 179 182 183 181 186 185 187 189 181 180 183 182 182 182 181 178 183 173 174 170 161 165 155 150 155 140 139 143 121 117
194 199 190 192 196 181 190 174 193 183 184 184 188 186 185 190 183 182 182 170 169 168 172 169 168 176 174 184 157 147 138 146
199 210 200 197 201 187 186 188 188 193 185 181 183 184 186 192 183 182 185 173 169 172 168 178 169 190 191 202 2 116 178 160
219 198 210 201 197 202 192 193 193 188 180 179 180 184 184 186 183 179 180 180 172 177 171 186 190 191 195 178 172 173 147 150
287 218 210 205 201 205 203 198 189 183 188 180 179 177 179 183 184 181 183 188 177 181 171 181 193 198 195 179 178 178 181 169
298 277 210 200 203 203 207 208 200 193 185 183 177 176 178 180 182 180 179 184 179 182 174 185 191 202 193 179 195 203 179 189
288 255 256 195 196 206 204 210 214 204 191 175 182 188 179 169 175 173 175 178 171 179 174 176 180 195 189 198 189 199 214 181